START_TIME,STEP,MOV.,M15,t_acc.,M20,t_acc.
1979-07-06 12:00:44.580 ,0,0,0.,24.0,0.,24.0
1979-07-06 12:01:08.580 ,1,1,0.,24.0,0.,24.0
1979-07-06 12:01:32.580 ,1,0,0.,24.0,0.,24.0
1979-07-06 12:01:56.580 ,2,1,0.,24.0,0.,24.0
1979-07-06 12:02:20.580 ,2,0,1.,24.0,0.,24.0
1979-07-06 12:02:44.580 ,3,1,0.,24.0,0.,24.0
1979-07-06 12:03:08.580 ,3,0,0.,24.0,0.,24.0
1979-07-06 12:03:32.580 ,4,1,0.,24.0,0.,24.0
1979-07-06 12:03:56.580 ,4,0,0.,24.0,0.,24.0
1979-07-06 12:04:20.580 ,5,1,1.,24.0,0.,24.0
1979-07-06 12:04:44.580 ,5,0,0.,24.0,0.,24.0
1979-07-06 12:05:08.580 ,6,1,0.,24.0,0.,24.0
1979-07-06 12:05:32.580 ,6,0,3.,24.0,0.,24.0
1979-07-06 12:05:56.580 ,7,1,0.,24.0,0.,24.0
1979-07-06 12:06:20.580 ,7,0,0.,24.0,0.,24.0
1979-07-06 12:06:44.580 ,7,1,1.,24.0,0.,24.0
1979-07-06 12:07:08.580 ,7,0,0.,24.0,0.,24.0
1979-07-06 12:07:32.580 ,6,1,0.,24.0,0.,24.0
1979-07-06 12:07:56.580 ,6,0,0.,24.0,0.,24.0
1979-07-06 12:08:20.580 ,5,1,0.,24.0,0.,24.0
1979-07-06 12:08:44.580 ,5,0,0.,24.0,0.,24.0
1979-07-06 12:09:08.580 ,4,1,0.,24.0,0.,24.0
1979-07-06 12:09:32.580 ,4,0,0.,24.0,0.,24.0
1979-07-06 12:09:56.580 ,3,1,0.,24.0,0.,24.0
1979-07-06 12:10:20.580 ,3,0,0.,24.0,0.,24.0
1979-07-06 12:10:44.580 ,2,1,0.,24.0,0.,24.0
1979-07-06 12:11:08.580 ,2,0,0.,24.0,0.,24.0
1979-07-06 12:11:32.580 ,1,1,0.,24.0,0.,24.0
1979-07-06 12:11:56.580 ,1,0,0.,24.0,0.,24.0
1979-07-06 12:12:20.580 ,0,1,0.,24.0,0.,24.0
1979-07-06 12:12:44.580 ,0,0,0.,24.0,0.,24.0
1979-07-06 12:13:08.580 ,0,1,0.,24.0,0.,24.0
1979-07-06 12:13:32.580 ,0,0,0.,24.0,0.,24.0
1979-07-06 12:13:56.580 ,1,1,0.,24.0,0.,24.0
1979-07-06 12:14:20.580 ,1,0,0.,24.0,0.,24.0
1979-07-06 12:14:44.580 ,2,1,0.,24.0,0.,24.0
1979-07-06 12:15:08.580 ,2,0,0.,24.0,0.,24.0
1979-07-06 12:15:32.580 ,3,1,0.,24.0,0.,24.0
1979-07-06 12:15:56.580 ,3,0,0.,24.0,0.,24.0
1979-07-06 12:16:20.580 ,4,1,1.,24.0,0.,24.0
1979-07-06 12:16:44.580 ,4,0,1.,24.0,0.,24.0
1979-07-06 12:17:08.570 ,5,1,0.,24.0,0.,24.0
1979-07-06 12:17:32.580 ,5,0,0.,24.0,0.,24.0
1979-07-06 12:17:56.580 ,6,1,0.,24.0,0.,24.0
1979-07-06 12:18:20.580 ,6,0,1.,24.0,0.,24.0
1979-07-06 12:18:44.580 ,7,0,0.,24.0,0.,24.0
1979-07-06 12:19:08.580 ,7,0,0.,24.0,0.,24.0
1979-07-06 12:19:32.580 ,3,1,0.,24.0,0.,24.0
1979-07-06 12:19:56.580 ,0,1,0.,24.0,0.,24.0
1979-07-06 12:20:20.580 ,4,1,0.,24.0,0.,24.0
1979-07-06 12:20:44.580 ,7,1,1.,24.0,0.,24.0
1979-07-06 12:21:08.580 ,3,1,0.,24.0,0.,24.0
1979-07-06 12:21:32.580 ,0,1,0.,24.0,0.,24.0
1979-07-06 12:21:56.580 ,4,1,0.,24.0,0.,24.0
1979-07-06 12:22:20.580 ,7,1,0.,24.0,0.,24.0
1979-07-06 12:22:44.580 ,3,1,0.,24.0,0.,24.0
1979-07-06 12:23:08.580 ,0,1,1.,24.0,0.,24.0
1979-07-06 12:23:32.580 ,4,1,0.,24.0,0.,24.0
1979-07-06 12:23:56.580 ,7,1,1.,24.0,0.,24.0
1979-07-06 12:24:20.580 ,3,1,0.,24.0,0.,24.0
1979-07-06 12:24:44.580 ,0,1,0.,24.0,0.,24.0
1979-07-06 12:25:08.580 ,4,1,0.,24.0,0.,24.0
1979-07-06 12:25:32.580 ,7,1,0.,24.0,0.,24.0
1979-07-06 12:25:56.580 ,3,1,0.,24.0,0.,24.0
1979-07-06 12:26:20.580 ,0,1,0.,24.0,0.,24.0
1979-07-06 12:26:44.580 ,4,1,0.,24.0,0.,24.0
1979-07-06 12:27:08.580 ,7,1,1.,24.0,0.,24.0
1979-07-06 12:27:32.580 ,3,1,0.,24.0,0.,24.0
1979-07-06 12:27:56.580 ,0,1,0.,24.0,0.,24.0
1979-07-06 12:28:20.580 ,4,1,0.,24.0,0.,24.0
1979-07-06 12:28:44.580 ,7,1,1.,24.0,0.,24.0
1979-07-06 12:29:08.580 ,3,1,0.,24.0,0.,24.0
1979-07-06 12:29:32.580 ,0,1,0.,24.0,0.,24.0
1979-07-06 12:29:56.580 ,0,0,0.,24.0,0.,24.0
1979-07-06 12:30:20.580 ,0,0,0.,24.0,0.,24.0
1979-07-06 12:30:44.580 ,5,1,0.,24.0,0.,24.0
1979-07-06 12:31:08.580 ,5,0,1.,24.0,0.,24.0
1979-07-06 12:31:32.580 ,4,1,1.,24.0,0.,24.0
1979-07-06 12:31:56.580 ,4,0,0.,24.0,0.,24.0
1979-07-06 12:32:20.580 ,3,1,0.,24.0,0.,24.0
1979-07-06 12:32:44.580 ,3,0,0.,24.0,0.,24.0
1979-07-06 12:33:08.580 ,2,1,0.,24.0,0.,24.0
1979-07-06 12:33:32.580 ,2,0,0.,24.0,0.,24.0
1979-07-06 12:33:56.580 ,1,1,0.,24.0,0.,24.0
1979-07-06 12:34:20.570 ,1,0,0.,24.0,0.,24.0
1979-07-06 12:34:44.570 ,0,1,0.,24.0,0.,24.0
1979-07-06 12:35:08.570 ,0,0,0.,24.0,0.,24.0
1979-07-06 12:35:32.570 ,0,1,0.,24.0,0.,24.0
1979-07-06 12:35:56.570 ,0,0,0.,24.0,0.,24.0
1979-07-06 12:36:20.570 ,1,1,0.,24.0,0.,24.0
1979-07-06 12:36:44.570 ,1,0,0.,24.0,0.,24.0
1979-07-06 12:37:08.570 ,2,1,0.,24.0,0.,24.0
1979-07-06 12:37:32.570 ,2,0,0.,24.0,0.,24.0
1979-07-06 12:37:56.570 ,3,1,0.,24.0,0.,24.0
1979-07-06 12:38:20.570 ,3,0,1.,24.0,0.,24.0
1979-07-06 12:38:44.570 ,4,1,0.,24.0,0.,24.0
1979-07-06 12:39:08.570 ,4,0,1.,24.0,0.,24.0
1979-07-06 12:39:32.570 ,5,1,0.,24.0,0.,24.0
1979-07-06 12:39:56.570 ,5,0,0.,24.0,0.,24.0
1979-07-06 12:40:20.570 ,6,1,0.,24.0,0.,24.0
1979-07-06 12:40:44.570 ,6,0,0.,24.0,0.,24.0
1979-07-06 12:41:08.570 ,7,1,1.,24.0,0.,24.0
1979-07-06 12:41:32.570 ,7,0,0.,24.0,0.,24.0
1979-07-06 12:41:56.570 ,7,1,0.,24.0,0.,24.0
1979-07-06 12:42:20.570 ,7,0,0.,24.0,0.,24.0
1979-07-06 12:42:44.570 ,6,1,0.,24.0,0.,24.0
1979-07-06 12:43:08.570 ,6,0,0.,24.0,0.,24.0
1979-07-06 12:43:32.570 ,5,1,0.,24.0,0.,24.0
1979-07-06 12:43:56.570 ,5,0,0.,24.0,0.,24.0
1979-07-06 12:44:20.570 ,4,1,0.,24.0,0.,24.0
1979-07-06 12:44:44.570 ,4,0,0.,24.0,0.,24.0
1979-07-06 12:45:08.570 ,3,1,0.,24.0,0.,24.0
1979-07-06 12:45:32.570 ,3,0,0.,24.0,0.,24.0
1979-07-06 12:45:56.570 ,2,1,1.,24.0,0.,24.0
1979-07-06 12:46:20.570 ,2,0,0.,24.0,0.,24.0
1979-07-06 12:46:44.570 ,1,1,0.,24.0,0.,24.0
1979-07-06 12:47:08.570 ,1,0,0.,24.0,0.,24.0
1979-07-06 12:47:32.570 ,0,1,0.,24.0,0.,24.0
1979-07-06 12:47:56.570 ,0,0,0.,24.0,0.,24.0
1979-07-06 12:48:20.570 ,0,1,0.,24.0,0.,24.0
1979-07-06 12:48:44.570 ,0,0,0.,24.0,0.,24.0
1979-07-06 12:49:08.570 ,1,1,1.,24.0,0.,24.0
1979-07-06 12:49:32.570 ,1,0,0.,24.0,0.,24.0
1979-07-06 12:49:56.570 ,2,1,1.,24.0,0.,24.0
1979-07-06 12:50:20.570 ,2,0,0.,24.0,0.,24.0
1979-07-06 12:50:44.570 ,3,1,0.,24.0,0.,24.0
1979-07-06 12:51:08.570 ,3,0,0.,24.0,0.,24.0
1979-07-06 12:51:32.570 ,4,1,0.,24.0,0.,24.0
1979-07-06 12:51:56.570 ,4,0,0.,24.0,0.,24.0
1979-07-06 12:52:20.570 ,5,1,0.,24.0,0.,24.0
1979-07-06 12:52:44.570 ,5,0,0.,24.0,0.,24.0
1979-07-06 12:53:08.570 ,6,1,0.,24.0,0.,24.0
1979-07-06 12:53:32.570 ,6,0,0.,24.0,0.,24.0
1979-07-06 12:53:56.570 ,7,1,0.,24.0,0.,24.0
1979-07-06 12:54:20.570 ,7,0,0.,24.0,0.,24.0
1979-07-06 12:54:44.570 ,7,1,0.,24.0,0.,24.0
1979-07-06 12:55:08.570 ,7,0,0.,24.0,0.,24.0
1979-07-06 12:55:32.570 ,6,1,0.,24.0,0.,24.0
1979-07-06 12:55:56.570 ,6,0,0.,24.0,0.,24.0
1979-07-06 12:56:20.570 ,5,1,0.,24.0,0.,24.0
1979-07-06 12:56:44.570 ,5,0,0.,24.0,0.,24.0
1979-07-06 12:57:08.570 ,4,1,0.,24.0,0.,24.0
1979-07-06 12:57:32.570 ,4,0,0.,24.0,0.,24.0
1979-07-06 12:57:56.570 ,3,1,0.,24.0,0.,24.0
1979-07-06 12:58:20.570 ,3,0,0.,24.0,0.,24.0
1979-07-06 12:58:44.570 ,2,1,0.,24.0,0.,24.0
1979-07-06 12:59:08.570 ,2,0,0.,24.0,0.,24.0
1979-07-06 12:59:32.570 ,1,1,0.,24.0,0.,24.0
1979-07-06 12:59:56.570 ,1,0,0.,24.0,0.,24.0
1979-07-06 13:00:20.570 ,0,1,0.,24.0,0.,24.0
1979-07-06 13:00:44.570 ,0,0,0.,24.0,0.,24.0
1979-07-06 13:01:08.570 ,0,1,0.,24.0,0.,24.0
1979-07-06 13:01:32.570 ,0,0,0.,24.0,0.,24.0
1979-07-06 13:01:56.570 ,1,1,0.,24.0,0.,24.0
1979-07-06 13:02:20.570 ,1,0,0.,24.0,0.,24.0
1979-07-06 13:02:44.570 ,2,1,0.,24.0,0.,24.0
1979-07-06 13:03:08.570 ,2,0,0.,24.0,0.,24.0
1979-07-06 13:03:32.570 ,3,1,0.,24.0,0.,24.0
1979-07-06 13:03:56.570 ,3,0,0.,24.0,0.,24.0
1979-07-06 13:04:20.570 ,4,1,0.,24.0,0.,24.0
1979-07-06 13:04:44.570 ,4,0,0.,24.0,0.,24.0
1979-07-06 13:05:08.570 ,5,1,0.,24.0,0.,24.0
1979-07-06 13:05:32.570 ,5,0,0.,24.0,0.,24.0
1979-07-06 13:05:56.570 ,6,1,0.,24.0,0.,24.0
1979-07-06 13:06:20.570 ,6,0,0.,24.0,0.,24.0
1979-07-06 13:06:20.570 ,6,0,0.,24.0,0.,24.0
1979-07-06 13:06:44.570 ,7,0,0.,24.0,0.,24.0
1979-07-06 13:07:08.570 ,7,0,0.,24.0,0.,24.0
1979-07-06 13:07:32.570 ,3,1,0.,24.0,0.,24.0
1979-07-06 13:07:56.570 ,0,1,0.,24.0,0.,24.0
1979-07-06 13:08:20.570 ,4,1,0.,24.0,0.,24.0
1979-07-06 13:08:44.570 ,7,1,0.,24.0,0.,24.0
1979-07-06 13:09:08.570 ,3,1,0.,24.0,0.,24.0
1979-07-06 13:09:32.570 ,0,1,0.,24.0,0.,24.0
1979-07-06 13:09:56.570 ,4,1,0.,24.0,0.,24.0
1979-07-06 13:10:20.570 ,7,1,0.,24.0,0.,24.0
1979-07-06 13:10:44.570 ,3,1,0.,24.0,0.,24.0
1979-07-06 13:11:08.570 ,0,1,0.,24.0,0.,24.0
1979-07-06 13:11:32.570 ,4,1,0.,24.0,0.,24.0
1979-07-06 13:11:56.570 ,7,1,0.,24.0,0.,24.0
1979-07-06 13:12:20.570 ,3,1,0.,24.0,0.,24.0
1979-07-06 13:12:44.570 ,0,1,0.,24.0,0.,24.0
1979-07-06 13:13:08.570 ,4,1,0.,24.0,0.,24.0
1979-07-06 13:13:32.570 ,7,1,0.,24.0,0.,24.0
1979-07-06 13:13:56.570 ,3,1,0.,24.0,0.,24.0
1979-07-06 13:14:20.570 ,0,1,0.,24.0,0.,24.0
1979-07-06 13:14:44.570 ,4,1,0.,24.0,0.,24.0
1979-07-06 13:15:08.570 ,7,1,0.,24.0,0.,24.0
1979-07-06 13:15:32.570 ,3,1,1.,24.0,0.,24.0
1979-07-06 13:15:56.570 ,0,1,0.,24.0,0.,24.0
1979-07-06 13:16:20.570 ,4,1,0.,24.0,0.,24.0
1979-07-06 13:16:44.570 ,7,1,0.,24.0,0.,24.0
1979-07-06 13:17:08.570 ,3,1,0.,24.0,0.,24.0
1979-07-06 13:17:32.570 ,0,1,0.,24.0,0.,24.0
1979-07-06 13:17:56.570 ,0,0,0.,24.0,0.,24.0
1979-07-06 13:18:20.570 ,0,0,0.,24.0,0.,24.0
1979-07-06 13:18:44.570 ,5,1,0.,24.0,0.,24.0
1979-07-06 13:19:08.570 ,5,0,0.,24.0,0.,24.0
1979-07-06 13:19:32.570 ,4,1,0.,24.0,0.,24.0
1979-07-06 13:19:56.570 ,4,0,0.,24.0,0.,24.0
1979-07-06 13:20:20.570 ,3,1,0.,24.0,0.,24.0
1979-07-06 13:20:44.570 ,3,0,0.,24.0,0.,24.0
1979-07-06 13:21:08.570 ,2,1,0.,24.0,0.,24.0
1979-07-06 13:21:32.570 ,2,0,0.,24.0,0.,24.0
1979-07-06 13:21:56.570 ,1,1,0.,24.0,0.,24.0
1979-07-06 13:22:20.570 ,1,0,0.,24.0,0.,24.0
1979-07-06 13:22:44.570 ,0,1,0.,24.0,0.,24.0
1979-07-06 13:23:08.570 ,0,0,0.,24.0,0.,24.0
1979-07-06 13:23:32.570 ,0,1,0.,24.0,0.,24.0
1979-07-06 13:23:56.570 ,0,0,0.,24.0,0.,24.0
1979-07-06 13:24:20.570 ,1,1,0.,24.0,0.,24.0
1979-07-06 13:24:44.570 ,1,0,0.,24.0,0.,24.0
1979-07-06 13:25:08.570 ,2,1,0.,24.0,0.,24.0
1979-07-06 13:25:32.570 ,2,0,0.,24.0,0.,24.0
1979-07-06 13:25:56.570 ,3,1,0.,24.0,0.,24.0
1979-07-06 13:26:20.570 ,3,0,0.,24.0,0.,24.0
1979-07-06 13:26:44.570 ,4,1,0.,24.0,0.,24.0
1979-07-06 13:27:08.570 ,4,0,0.,24.0,0.,24.0
1979-07-06 13:27:32.570 ,5,1,0.,24.0,0.,24.0
1979-07-06 13:27:56.570 ,5,0,0.,24.0,0.,24.0
1979-07-06 13:28:20.570 ,6,1,0.,24.0,0.,24.0
1979-07-06 13:28:44.570 ,6,0,0.,24.0,0.,24.0
1979-07-06 13:29:08.570 ,7,1,0.,24.0,0.,24.0
1979-07-06 13:29:32.570 ,7,0,0.,24.0,0.,24.0
1979-07-06 13:29:56.570 ,7,1,0.,24.0,0.,24.0
1979-07-06 13:30:20.570 ,7,0,0.,24.0,0.,24.0
1979-07-06 13:30:44.570 ,6,1,0.,24.0,0.,24.0
1979-07-06 13:31:08.570 ,6,0,0.,24.0,0.,24.0
1979-07-06 13:31:32.570 ,5,1,0.,24.0,0.,24.0
1979-07-06 13:31:56.570 ,5,0,0.,24.0,0.,24.0
1979-07-06 13:32:20.570 ,4,1,0.,24.0,0.,24.0
1979-07-06 13:32:44.570 ,4,0,1.,24.0,0.,24.0
1979-07-06 13:33:08.570 ,3,1,0.,24.0,0.,24.0
1979-07-06 13:33:32.570 ,3,0,0.,24.0,0.,24.0
1979-07-06 13:33:56.570 ,2,1,0.,24.0,0.,24.0
1979-07-06 13:34:20.570 ,2,0,0.,24.0,0.,24.0
1979-07-06 13:34:44.570 ,1,1,0.,24.0,0.,24.0
1979-07-06 13:35:08.570 ,1,0,1.,24.0,0.,24.0
1979-07-06 13:35:32.570 ,0,1,0.,24.0,0.,24.0
1979-07-06 13:35:56.570 ,0,0,0.,24.0,0.,24.0
1979-07-06 13:36:20.570 ,0,1,0.,24.0,0.,24.0
1979-07-06 13:36:44.570 ,0,0,0.,24.0,0.,24.0
1979-07-06 13:37:08.570 ,1,1,0.,24.0,0.,24.0
1979-07-06 13:37:32.570 ,1,0,1.,24.0,0.,24.0
1979-07-06 13:37:56.570 ,2,1,0.,24.0,0.,24.0
1979-07-06 13:38:20.570 ,2,0,0.,24.0,0.,24.0
1979-07-06 13:38:44.570 ,3,1,0.,24.0,0.,24.0
1979-07-06 13:39:08.570 ,3,0,0.,24.0,0.,24.0
1979-07-06 13:39:32.570 ,4,1,0.,24.0,0.,24.0
1979-07-06 13:39:56.570 ,4,0,0.,24.0,0.,24.0
1979-07-06 13:40:20.570 ,5,1,0.,24.0,0.,24.0
1979-07-06 13:40:44.570 ,5,0,0.,24.0,0.,24.0
1979-07-06 13:41:08.570 ,6,1,0.,24.0,0.,24.0
1979-07-06 13:41:32.570 ,6,0,0.,24.0,0.,24.0
1979-07-06 13:41:56.570 ,7,1,0.,24.0,0.,24.0
1979-07-06 13:42:20.570 ,7,0,0.,24.0,0.,24.0
1979-07-06 13:42:44.570 ,7,1,0.,24.0,0.,24.0
1979-07-06 13:43:08.570 ,7,0,0.,24.0,0.,24.0
1979-07-06 13:43:32.570 ,6,1,0.,24.0,0.,24.0
1979-07-06 13:43:56.570 ,6,0,0.,24.0,0.,24.0
1979-07-06 13:44:20.570 ,5,1,0.,24.0,0.,24.0
1979-07-06 13:44:44.570 ,5,0,0.,24.0,0.,24.0
1979-07-06 13:45:08.570 ,4,1,0.,24.0,0.,24.0
1979-07-06 13:45:32.570 ,4,0,0.,24.0,0.,24.0
1979-07-06 13:45:56.570 ,3,1,0.,24.0,0.,24.0
1979-07-06 13:46:20.570 ,3,0,0.,24.0,0.,24.0
1979-07-06 13:46:44.570 ,2,1,0.,24.0,0.,24.0
1979-07-06 13:47:08.570 ,2,0,0.,24.0,0.,24.0
1979-07-06 13:47:32.570 ,1,1,0.,24.0,0.,24.0
1979-07-06 13:47:56.570 ,1,0,0.,24.0,0.,24.0
1979-07-06 13:48:20.570 ,0,1,0.,24.0,0.,24.0
1979-07-06 13:48:44.570 ,0,0,0.,24.0,0.,24.0
1979-07-06 13:49:08.570 ,0,1,0.,24.0,0.,24.0
1979-07-06 13:49:32.570 ,0,0,1.,24.0,0.,24.0
1979-07-06 13:49:56.570 ,1,1,0.,24.0,0.,24.0
1979-07-06 13:50:20.570 ,1,0,0.,24.0,0.,24.0
1979-07-06 13:50:44.570 ,2,1,0.,24.0,0.,24.0
1979-07-06 13:51:08.570 ,2,0,0.,24.0,0.,24.0
1979-07-06 13:51:32.570 ,3,1,0.,24.0,0.,24.0
1979-07-06 13:51:56.570 ,3,0,0.,24.0,0.,24.0
1979-07-06 13:52:20.570 ,4,1,0.,24.0,0.,24.0
1979-07-06 13:52:44.570 ,4,0,0.,24.0,0.,24.0
1979-07-06 13:53:08.570 ,5,1,0.,24.0,0.,24.0
1979-07-06 13:53:32.570 ,5,0,0.,24.0,0.,24.0
1979-07-06 13:53:56.570 ,6,1,0.,24.0,0.,24.0
1979-07-06 13:54:20.570 ,6,0,1.,24.0,0.,24.0
1979-07-06 13:54:44.570 ,7,0,0.,24.0,0.,24.0
1979-07-06 13:55:08.570 ,7,0,0.,24.0,0.,24.0
1979-07-06 13:55:32.570 ,3,1,0.,24.0,0.,24.0
1979-07-06 13:55:56.570 ,0,1,0.,24.0,0.,24.0
1979-07-06 13:56:20.570 ,4,1,0.,24.0,0.,24.0
1979-07-06 13:56:44.570 ,7,1,0.,24.0,0.,24.0
1979-07-06 13:57:08.570 ,3,1,0.,24.0,0.,24.0
1979-07-06 13:57:32.570 ,0,1,0.,24.0,0.,24.0
1979-07-06 13:57:56.570 ,4,1,0.,24.0,0.,24.0
1979-07-06 13:58:20.570 ,7,1,0.,24.0,0.,24.0
1979-07-06 13:58:44.570 ,3,1,1.,24.0,0.,24.0
1979-07-06 13:59:08.570 ,0,1,0.,24.0,0.,24.0
1979-07-06 13:59:32.570 ,4,1,0.,24.0,0.,24.0
1979-07-06 13:59:56.570 ,7,1,0.,24.0,0.,24.0
1979-07-06 14:00:20.570 ,3,1,0.,24.0,0.,24.0
1979-07-06 14:00:44.570 ,0,1,0.,24.0,0.,24.0
1979-07-06 14:01:08.570 ,4,1,1.,24.0,0.,24.0
1979-07-06 14:01:32.570 ,7,1,0.,24.0,0.,24.0
1979-07-06 14:01:56.570 ,3,1,0.,24.0,0.,24.0
1979-07-06 14:02:20.570 ,0,1,0.,24.0,0.,24.0
1979-07-06 14:02:44.570 ,4,1,1.,24.0,0.,24.0
1979-07-06 14:03:08.570 ,7,1,0.,24.0,0.,24.0
1979-07-06 14:03:32.570 ,3,1,0.,24.0,0.,24.0
1979-07-06 14:03:56.570 ,0,1,1.,24.0,0.,24.0
1979-07-06 14:04:20.570 ,4,1,0.,24.0,0.,24.0
1979-07-06 14:04:44.570 ,7,1,0.,24.0,0.,24.0
1979-07-06 14:05:08.570 ,3,1,0.,24.0,0.,24.0
1979-07-06 14:05:32.570 ,0,1,0.,24.0,0.,24.0
1979-07-06 14:05:56.570 ,0,0,0.,24.0,0.,24.0
1979-07-06 14:06:20.570 ,0,0,0.,24.0,0.,24.0
1979-07-06 14:06:44.570 ,5,1,0.,24.0,0.,24.0
1979-07-06 14:07:08.570 ,5,0,0.,24.0,0.,24.0
1979-07-06 14:07:56.570 ,4,0,0.,24.0,0.,24.0
1979-07-06 14:08:20.570 ,3,1,0.,24.0,0.,24.0
1979-07-06 14:08:44.570 ,3,0,0.,24.0,0.,24.0
1979-07-06 14:09:08.570 ,2,1,0.,24.0,0.,24.0
1979-07-06 14:09:32.570 ,2,0,0.,24.0,0.,24.0
1979-07-06 14:09:56.570 ,1,1,0.,24.0,0.,24.0
1979-07-06 14:10:20.570 ,1,0,1.,24.0,0.,24.0
1979-07-06 14:10:44.570 ,0,1,0.,24.0,0.,24.0
1979-07-06 14:11:08.570 ,0,0,0.,24.0,0.,24.0
1979-07-06 14:11:32.570 ,0,1,0.,24.0,0.,24.0
1979-07-06 14:11:56.570 ,0,0,0.,24.0,0.,24.0
1979-07-06 14:12:20.570 ,1,1,0.,24.0,0.,24.0
1979-07-06 14:12:44.570 ,1,0,0.,24.0,0.,24.0
1979-07-06 14:13:08.570 ,2,1,0.,24.0,0.,24.0
1979-07-06 14:13:32.570 ,2,0,0.,24.0,0.,24.0
1979-07-06 14:13:56.570 ,3,1,0.,24.0,0.,24.0
1979-07-06 14:14:20.570 ,3,0,0.,24.0,0.,24.0
1979-07-06 14:14:44.570 ,4,1,0.,24.0,0.,24.0
1979-07-06 14:15:08.570 ,4,0,0.,24.0,0.,24.0
1979-07-06 14:15:32.570 ,5,1,0.,24.0,0.,24.0
1979-07-06 14:15:56.570 ,5,0,0.,24.0,0.,24.0
1979-07-06 14:16:20.570 ,6,1,0.,24.0,0.,24.0
1979-07-06 14:16:44.570 ,6,0,0.,24.0,0.,24.0
1979-07-06 14:17:08.570 ,7,1,0.,24.0,0.,24.0
1979-07-06 14:17:32.570 ,7,0,0.,24.0,0.,24.0
1979-07-06 14:17:56.570 ,7,1,0.,24.0,0.,24.0
1979-07-06 14:18:20.570 ,7,0,0.,24.0,0.,24.0
1979-07-06 14:18:44.570 ,6,1,0.,24.0,0.,24.0
1979-07-06 14:19:08.570 ,6,0,0.,24.0,0.,24.0
1979-07-06 14:19:32.570 ,5,1,0.,24.0,0.,24.0
1979-07-06 14:19:56.570 ,5,0,0.,24.0,0.,24.0
1979-07-06 14:20:20.570 ,4,1,0.,24.0,0.,24.0
1979-07-06 14:20:44.570 ,4,0,0.,24.0,0.,24.0
1979-07-06 14:21:08.570 ,3,1,0.,24.0,0.,24.0
1979-07-06 14:21:32.570 ,3,0,0.,24.0,0.,24.0
1979-07-06 14:21:56.570 ,2,1,0.,24.0,0.,24.0
1979-07-06 14:22:20.570 ,2,0,0.,24.0,0.,24.0
1979-07-06 14:22:44.570 ,1,1,0.,24.0,0.,24.0
1979-07-06 14:23:08.570 ,1,0,0.,24.0,0.,24.0
1979-07-06 14:23:32.570 ,0,1,0.,24.0,0.,24.0
1979-07-06 14:23:56.570 ,0,0,0.,24.0,0.,24.0
1979-07-06 14:24:20.570 ,0,1,0.,24.0,0.,24.0
1979-07-06 14:24:44.570 ,0,0,0.,24.0,0.,24.0
1979-07-06 14:25:08.570 ,1,1,0.,24.0,0.,24.0
1979-07-06 14:25:32.570 ,1,0,0.,24.0,0.,24.0
1979-07-06 14:25:56.570 ,2,1,0.,24.0,0.,24.0
1979-07-06 14:26:20.570 ,2,0,0.,24.0,0.,24.0
1979-07-06 14:26:44.570 ,3,1,0.,24.0,0.,24.0
1979-07-06 14:27:08.570 ,3,0,0.,24.0,0.,24.0
1979-07-06 14:27:32.570 ,4,1,0.,24.0,0.,24.0
1979-07-06 14:27:56.570 ,4,0,0.,24.0,0.,24.0
1979-07-06 14:28:20.570 ,5,1,0.,24.0,0.,24.0
1979-07-06 14:28:44.570 ,5,0,0.,24.0,0.,24.0
1979-07-06 14:29:08.570 ,6,1,0.,24.0,0.,24.0
1979-07-06 14:29:32.570 ,6,0,0.,24.0,0.,24.0
1979-07-06 14:29:56.570 ,7,1,0.,24.0,0.,24.0
1979-07-06 14:30:20.570 ,7,0,0.,24.0,0.,24.0
1979-07-06 14:30:44.570 ,7,1,0.,24.0,0.,24.0
1979-07-06 14:31:08.570 ,7,0,0.,24.0,0.,24.0
1979-07-06 14:31:32.570 ,6,1,0.,24.0,0.,24.0
1979-07-06 14:31:56.570 ,6,0,0.,24.0,0.,24.0
1979-07-06 14:32:20.570 ,5,1,0.,24.0,0.,24.0
1979-07-06 14:32:44.570 ,5,0,0.,24.0,0.,24.0
1979-07-06 14:33:08.570 ,4,1,0.,24.0,0.,24.0
1979-07-06 14:33:32.570 ,4,0,0.,24.0,0.,24.0
1979-07-06 14:33:56.570 ,3,1,0.,24.0,0.,24.0
1979-07-06 14:34:20.570 ,3,0,1.,24.0,0.,24.0
1979-07-06 14:34:44.570 ,2,1,1.,24.0,0.,24.0
1979-07-06 14:35:08.570 ,2,0,0.,24.0,0.,24.0
1979-07-06 14:35:32.570 ,1,1,1.,24.0,0.,24.0
1979-07-06 14:35:56.570 ,1,0,0.,24.0,0.,24.0
1979-07-06 14:36:20.570 ,0,1,1.,24.0,0.,24.0
1979-07-06 14:36:44.570 ,0,0,0.,24.0,0.,24.0
1979-07-06 14:37:08.570 ,0,1,1.,24.0,0.,24.0
1979-07-06 14:37:32.570 ,0,0,0.,24.0,0.,24.0
1979-07-06 14:37:56.570 ,1,1,0.,24.0,0.,24.0
1979-07-06 14:38:20.570 ,1,0,0.,24.0,0.,24.0
1979-07-06 14:38:44.570 ,2,1,0.,24.0,0.,24.0
1979-07-06 14:39:08.570 ,2,0,0.,24.0,0.,24.0
1979-07-06 14:39:32.570 ,3,1,0.,24.0,0.,24.0
1979-07-06 14:39:56.570 ,3,0,0.,24.0,0.,24.0
1979-07-06 14:40:20.570 ,4,1,0.,24.0,0.,24.0
1979-07-06 14:40:44.570 ,4,0,0.,24.0,0.,24.0
1979-07-06 14:41:08.570 ,5,1,0.,24.0,0.,24.0
1979-07-06 14:41:32.570 ,5,0,0.,24.0,0.,24.0
1979-07-06 14:41:56.570 ,6,1,0.,24.0,0.,24.0
1979-07-06 14:42:20.570 ,6,0,0.,24.0,0.,24.0
1979-07-06 14:42:44.570 ,7,0,0.,24.0,0.,24.0
1979-07-06 14:43:08.570 ,7,0,0.,24.0,0.,24.0
1979-07-06 14:43:32.570 ,3,1,1.,24.0,0.,24.0
1979-07-06 14:43:56.570 ,0,1,0.,24.0,0.,24.0
1979-07-06 14:44:20.570 ,4,1,0.,24.0,0.,24.0
1979-07-06 14:44:44.570 ,7,1,0.,24.0,0.,24.0
1979-07-06 14:45:08.570 ,3,1,0.,24.0,0.,24.0
1979-07-06 14:45:32.570 ,0,1,0.,24.0,0.,24.0
1979-07-06 14:45:56.570 ,4,1,0.,24.0,0.,24.0
1979-07-06 14:46:20.570 ,7,1,0.,24.0,0.,24.0
1979-07-06 14:46:44.570 ,3,1,0.,24.0,0.,24.0
1979-07-06 14:47:08.570 ,0,1,0.,24.0,0.,24.0
1979-07-06 14:47:32.570 ,4,1,0.,24.0,0.,24.0
1979-07-06 14:47:56.570 ,7,1,0.,24.0,0.,24.0
1979-07-06 14:48:20.570 ,3,1,0.,24.0,0.,24.0
1979-07-06 14:48:44.570 ,0,1,0.,24.0,0.,24.0
1979-07-06 14:49:08.570 ,4,1,1.,24.0,0.,24.0
1979-07-06 14:49:32.570 ,7,1,0.,24.0,0.,24.0
1979-07-06 14:49:56.570 ,3,1,0.,24.0,0.,24.0
1979-07-06 14:50:20.570 ,0,1,0.,24.0,0.,24.0
1979-07-06 14:50:44.570 ,4,1,0.,24.0,0.,24.0
1979-07-06 14:51:08.570 ,7,1,0.,24.0,0.,24.0
1979-07-06 14:51:32.570 ,3,1,0.,24.0,0.,24.0
1979-07-06 14:51:56.570 ,0,1,0.,24.0,0.,24.0
1979-07-06 14:52:20.570 ,4,1,0.,24.0,0.,24.0
1979-07-06 14:52:44.570 ,7,1,1.,24.0,0.,24.0
1979-07-06 14:53:08.570 ,3,1,0.,24.0,0.,24.0
1979-07-06 14:53:32.570 ,0,1,0.,24.0,0.,24.0
1979-07-06 14:53:56.570 ,0,0,0.,24.0,0.,24.0
1979-07-06 14:54:20.570 ,0,0,0.,24.0,0.,24.0
1979-07-06 14:54:20.570 ,0,0,0.,24.0,0.,24.0
1979-07-06 14:54:44.570 ,5,1,0.,24.0,0.,24.0
1979-07-06 14:55:08.570 ,5,0,2.,24.0,0.,24.0
1979-07-06 14:55:32.570 ,4,1,0.,24.0,0.,24.0
1979-07-06 14:55:56.570 ,4,0,0.,24.0,0.,24.0
1979-07-06 14:56:20.570 ,3,1,1.,24.0,0.,24.0
1979-07-06 14:56:44.570 ,3,0,0.,24.0,0.,24.0
1979-07-06 14:57:08.570 ,2,1,0.,24.0,0.,24.0
1979-07-06 14:57:32.570 ,2,0,0.,24.0,0.,24.0
1979-07-06 14:57:56.570 ,1,1,0.,24.0,0.,24.0
1979-07-06 14:58:20.570 ,1,0,0.,24.0,0.,24.0
1979-07-06 14:58:44.570 ,0,1,0.,24.0,0.,24.0
1979-07-06 14:59:08.570 ,0,0,0.,24.0,0.,24.0
1979-07-06 14:59:32.570 ,0,1,0.,24.0,0.,24.0
1979-07-06 14:59:56.570 ,0,0,1.,24.0,0.,24.0
1979-07-06 15:00:20.570 ,1,1,0.,24.0,0.,24.0
